Location: Ch?enovice
(49.7164°N, 15.2160°E)
Time: 02:47:51
(UTC+00:00)

Daily predictions for brighter satellites

Satellite Brightness Start Highest point End
(mag) Time Altitude Azimuth Time Altitude Azimuth Time Altitude Azimuth
Cosmos 1315 Rocket 4.0 00:04:20 23° SE 00:05:55 32° E 00:09:28 10° NNE
SJ 16-02 3.9 00:05:07 10° ESE 00:05:57 10° E 00:06:49 10° E
Cosmos 2228 Rocket 3.5 00:05:20 34° SW 00:06:59 53° WNW 00:11:25 10° N
Meteor 1-21 4.2 00:04:42 31° SSW 00:07:33 82° WNW 00:13:20 10° N
Helios 1A Rocket 2.7 00:07:44 43° S 00:08:53 70° WSW 00:12:45 10° NNW
Cosmos 2082 Rocket 2.2 00:07:01 30° SSW 00:09:58 89° WNW 00:15:44 10° NNE
Cosmos 1833 Rocket 4.0 00:08:10 13° WSW 00:12:37 33° NW 00:17:41 10° NNE
SL-16 R/B 4.3 00:07:49 10° ESE 00:13:05 30° ENE 00:18:21 10° N
BREEZE-M DEB (TANK) 3.9 00:13:11 28° WSW 00:14:31 36° SSW 00:22:40 10° SE
CZ-2D R/B 3.6 00:12:35 10° NNE 00:17:22 30° E 00:21:24 13° SSE
Cosmos 2237 4.4 00:13:38 10° NNW 00:19:24 74° ENE 00:25:07 10° SE
Cosmos 1908 Rocket 3.6 00:15:29 10° N 00:19:56 80° ENE 00:22:20 27° SSE
Cosmos 2360 Rocket 3.6 00:16:21 10° NNW 00:21:42 39° NE 00:26:59 10° ESE
USA 267 3.5 00:16:36 10° ENE 00:23:06 70° NNW 00:29:36 10° WSW
DELTA 2 R/B (1) 4.3 00:26:16 28° SSW 00:26:58 29° S 00:31:41 10° ESE
Cosmos 1455 1.8 00:26:30 10° N 00:29:58 87° E 00:31:18 36° SSE
Cosmos 1733 Rocket 4.2 00:26:57 10° NNW 00:30:40 28° W 00:31:54 24° WSW
Resurs 1-4 Rocket 3.0 00:27:14 10° NNE 00:32:11 40° E 00:36:00 16° SSE
Cosmos 841 Rocket 3.4 00:27:01 10° NNW 00:32:17 82° WSW 00:36:21 17° SSE
Cosmos 1400 Rocket 4.2 00:32:16 21° WSW 00:33:52 27° WNW 00:37:19 10° N
H-2A R/B 4.3 00:33:21 10° NNW 00:36:09 17° WNW 00:38:57 10° W
H-2A R/B 3.8 00:37:41 10° NNE 00:41:38 55° E 00:43:49 24° S
Cosmos 2278 3.7 00:35:57 10° NNW 00:41:40 72° WSW 00:46:48 13° SSE
Cosmos 1346 Rocket 3.9 00:41:04 10° NNW 00:44:22 27° W 00:45:17 24° WSW
COBE Rocket 4.1 00:40:05 10° NNE 00:44:57 69° E 00:48:15 21° S
Cosmos 676 Rocket 4.2 00:42:47 24° SW 00:45:57 64° WNW 00:51:16 10° NNE
Okean 2 3.7 00:49:49 28° SW 00:51:35 51° WNW 00:55:29 10° N
CZ-2C R/B 2.7 00:47:46 10° SSE 00:52:49 78° ENE 00:58:02 10° NNW
Cosmos 1745 Rocket 4.0 00:48:37 21° SSW 00:52:57 83° W 00:59:17 10° N
Meteor 1-4 Rocket 2.3 00:53:07 37° SW 00:53:58 55° WNW 00:56:54 10° N
Cosmos 2333 Rocket 2.9 00:48:54 10° NNW 00:54:33 58° NE 01:00:12 10° SE
Cosmos 2242 Rocket 4.3 00:53:26 16° SSE 00:56:47 50° E 01:01:08 10° NNE
Cosmos 2098 Rocket 4.5 00:54:17 10° N 00:59:12 50° ENE 01:05:01 10° SSE
Cosmos 2322 Rocket 2.3 00:53:45 10° NNW 00:59:26 82° ENE 01:05:07 10° SSE
Cosmos 1814 Rocket 4.4 00:55:18 10° NNW 01:00:30 67° ENE 01:05:44 10° SSE
USA 234 4.0 00:56:30 16° S 01:00:38 29° SW 01:06:14 10° WNW
Cosmos 1703 Rocket 3.8 00:58:54 24° SSW 01:01:23 60° WNW 01:05:49 10° N
Cosmos 1953 3.2 01:00:17 10° NNW 01:03:48 33° W 01:05:20 24° SW
SL-8 R/B 4.4 01:02:00 10° W 01:06:09 30° SSW 01:10:18 10° SSE
NPP 3.6 01:01:05 10° NNE 01:06:31 89° WNW 01:10:33 18° SSW
SL-27 R/B 3.6 01:08:51 15° SSE 01:10:30 25° ESE 01:12:54 10° NE
Cosmos 1980 Rocket 3.9 01:09:23 10° WNW 01:12:28 15° W 01:14:01 13° WSW
Nadezhda 1 Rocket 4.4 01:07:29 10° NNW 01:13:35 47° W 01:18:17 17° SSW
Cosmos 1242 Rocket 1.8 01:13:25 27° S 01:14:49 89° SE 01:17:43 10° NNE
SL-4 R/B 4.4 01:13:00 10° SSE 01:14:59 13° SE 01:16:59 10° ESE
Cosmos 1300 Rocket 3.6 01:12:46 10° NNW 01:17:04 62° W 01:20:24 16° S
ADEOS II 2.4 01:14:09 10° NNE 01:19:22 64° ESE 01:24:12 12° S
Cosmos 1408 2.0 01:21:25 21° S 01:23:14 86° E 01:26:14 10° N
COSMOS 2406 4.3 01:19:32 12° WSW 01:24:21 37° NW 01:29:41 10° NNE
IDEFIX/ARIANE 42P 2.8 01:19:09 10° N 01:24:21 63° WNW 01:28:28 16° SSW
Lacrosse 5 rocket 1.8 01:22:17 10° WNW 01:26:01 35° SW 01:29:36 10° SSE
ALOS 3.3 01:22:44 10° NNE 01:27:09 42° E 01:31:32 10° S
Cosmos 839 Rocket 4.2 01:19:46 10° NW 01:27:17 89° NE 01:33:35 10° SE
EXPRESS MD2 3.5 01:27:55 22° SSW 01:29:31 44° SSE 01:33:52 10° ENE
COSMOS 2441 4.3 01:30:11 10° NNE 01:35:00 82° WNW 01:39:15 13° SSW
Cosmos 405 Rocket 3.9 01:34:27 10° N 01:37:52 40° ENE 01:41:18 10° SE
Cosmos 1378 Rocket 4.4 01:33:55 10° SSE 01:38:01 46° E 01:42:09 10° NNE
ATLAS 2AS CENTAUR R/B 2.9 01:34:22 10° NW 01:41:18 76° NE 01:47:57 10° SE
Cosmos 1315 Rocket 4.3 01:39:37 13° WSW 01:42:09 24° WNW 01:45:22 10° NNW
Okean 1 Rocket 4.5 01:38:15 10° N 01:42:21 39° ENE 01:46:24 10° SE
CZ-2C R/B 3.4 01:37:03 10° NNE 01:42:53 78° WNW 01:48:25 11° SSW
SL-16 R/B 2.9 01:38:32 10° NW 01:43:33 33° WSW 01:48:32 10° SSW
SJ 16-02 1.3 01:39:50 14° SSW 01:43:33 88° ESE 01:47:53 10° NNE
UNK 3.9 01:44:17 10° SSE 01:48:55 81° ENE 01:53:35 10° NNW
Cosmos 2333 4.2 01:45:07 10° NNW 01:50:51 76° WSW 01:56:35 10° SSE
Cosmos 2082 Rocket 4.0 01:50:25 10° W 01:54:52 23° NW 01:59:19 10° NNE
SL-16 R/B 2.6 01:50:03 10° S 01:56:15 64° WSW 02:02:30 10° NNW
Cosmos 2219 Rocket 2.2 01:51:24 10° NNW 01:57:05 89° WSW 02:02:46 10° SSE
Cosmos 2181 Rocket 4.1 01:51:06 10° NNW 01:57:24 63° W 02:03:34 10° S
CZ-2D R/B 2.7 01:52:19 10° N 01:57:35 48° WNW 02:02:42 10° SW
Cosmos 1703 3.5 02:00:01 11° SSW 02:03:29 49° WNW 02:07:08 10° N
Meteor 1-28 Rocket 3.7 02:00:09 10° SSW 02:03:29 37° W 02:06:50 10° NNW
AQUA 3.9 01:59:14 10° N 02:03:56 65° WNW 02:08:36 10° SSW
COSMOS 2428 3.5 01:59:50 10° NNW 02:05:27 58° NE 02:11:03 10° SE
USA 267 4.2 01:59:28 10° ENE 02:05:41 48° N 02:11:53 10° WNW
Cosmos 2360 Rocket 2.6 02:00:25 10° NW 02:05:45 43° WSW 02:11:05 10° S
Cosmos 968 Rocket 3.9 02:02:10 11° SW 02:06:59 49° WNW 02:11:59 10° NNE
Genesis I 3.1 02:05:37 11° SW 02:08:59 64° NW 02:12:33 10° NE
Meteor 1-24 Rocket 4.0 02:03:23 10° SSW 02:09:23 69° WNW 02:15:23 10° N
RESURS DK-1 2.7 02:06:08 10° NW 02:10:00 43° WSW 02:13:52 10° S
Resurs 1-4 Rocket 3.0 02:07:12 10° N 02:11:55 35° WNW 02:16:37 10° SW
SAR-Lupe-4 3.7 02:10:57 10° N 02:14:31 64° WNW 02:18:02 10° SSW
Cosmos 2237 Rocket 4.2 02:14:26 10° NNW 02:19:40 35° NE 02:24:50 10° ESE
FENGYUN 3A 4.2 02:16:21 10° N 02:21:29 47° WNW 02:26:35 10° SW
IRAS Rocket 4.3 02:16:37 10° NNE 02:22:08 71° WNW 02:27:34 10° SSW
